This is the latest recevied weather packets stored in our database for station/object WA7CUG. If no packets are shown the sender has not sent any weather packets the latest 10 day(s).
| Time | Temp. | Humidity | Pressure | Rain* | Wind** | Luminosity | Snow |
|---|---|---|---|---|---|---|---|
| 1777811223 | 7.78° C | 87% | 1016.5 hPa | 0 mm | - | 1 W/m² | - |
| 1777810920 | 8.89° C | 83% | 1016.6 hPa | 0 mm | - | 0 W/m² | - |
| 1777810616 | 8.89° C | 81% | 1016.5 hPa | 0 mm | - | 0 W/m² | - |
| 1777810314 | 9.44° C | 80% | 1016.5 hPa | 0 mm | - | 0 W/m² | - |
| 1777810009 | 8.89° C | 80% | 1016.5 hPa | 0 mm | - | 0 W/m² | - |
| 1777809707 | 8.89° C | 81% | 1016.6 hPa | 0 mm | - | 0 W/m² | - |
| 1777809404 | 8.89° C | 83% | 1016.6 hPa | 0 mm | - | 0 W/m² | - |
| 1777809102 | 8.89° C | 82% | 1016.7 hPa | 0 mm | - | 0 W/m² | - |
| 1777808799 | 8.89° C | 81% | 1016.5 hPa | 0 mm | - | 0 W/m² | - |
| 1777808496 | 8.89° C | 80% | 1016.6 hPa | 0 mm | - | 0 W/m² | - |
| 1777808194 | 8.89° C | 81% | 1016.5 hPa | 0 mm | - | 0 W/m² | - |
| 1777807892 | 8.89° C | 82% | 1016.6 hPa | 0 mm | - | 0 W/m² | - |
| 1777807590 | 8.89° C | 83% | 1016.7 hPa | 0 mm | - | 0 W/m² | - |
| 1777807281 | 9.44° C | 79% | 1016.7 hPa | 0 mm | - | 0 W/m² | - |
| 1777806977 | 8.33° C | 83% | 1016.7 hPa | 0 mm | - | 0 W/m² | - |
| 1777806674 | 8.33° C | 84% | 1016.5 hPa | 0 mm | - | 0 W/m² | - |
| 1777806370 | 8.33° C | 82% | 1016.6 hPa | 0 mm | - | 0 W/m² | - |
| 1777806067 | 8.33° C | 84% | 1016.6 hPa | 0 mm | - | 0 W/m² | - |
| 1777805763 | 9.44° C | 79% | 1016.7 hPa | 0 mm | - | 0 W/m² | - |
| 1777805461 | 8.89° C | 80% | 1016.5 hPa | 0 mm | - | 0 W/m² | - |
| 1777805158 | 8.89° C | 81% | 1016.7 hPa | 0 mm | - | 0 W/m² | - |
| 1777804856 | 10° C | 77% | 1016.7 hPa | 0 mm | - | 0 W/m² | - |
| 1777804553 | 10° C | 78% | 1016.7 hPa | 0 mm | - | 0 W/m² | - |
| 1777804251 | 8.89° C | 81% | 1016.6 hPa | 0 mm | - | 0 W/m² | - |
| 1777803948 | 10° C | 78% | 1016.7 hPa | 0 mm | - | 0 W/m² | - |
* Rain latest hour (hover to see other rain measurements)
** Current wind speed in m/s (hover to see current wind gust speed)